Caldwell, NJ

11:06 AM EST on November 18, 2019 (GMT -0500)
Essex County

Weather History for KCDW - September, 2019

Change the Weather History Date:

Monday, September 2, 2019

  Actual Average Record
Temperature  
Mean Temperature 74 °F -  
Max Temperature 82 °F 80 °F 100 °F (1953)
Min Temperature 66 °F 57 °F 41 °F (1976)
Cooling Degree Days 8    
Growing Degree Days 24 (Base 50)    
Moisture  
Dew Point 69 °F    
Average Humidity 84    
Maximum Humidity 100    
Minimum Humidity 65    
Precipitation  
Precipitation 0.82 in - - ()
Sea Level Pressure  
Sea Level Pressure 30.05 in    
Wind  
Wind Speed 4 mph ()    
Max Wind Speed 13 mph    
Max Gust Speed 17 mph    
Visibility 7.8 miles    
Events Fog , Rain , Thunderstorm    
Averages and records for this station are not official NWS values.
T = Trace of Precipitation, MM = Missing Value Source: Averaged Metar Reports

Daily Weather History Graph

Daily Weather History Graph

Search for Another Location

Airport or City:

Astronomy

Sep. 02, 2019 Rise Set
Actual Time 6:24 AM EDT 7:28 PM EDT
Civil Twilight 5:56 AM EDT 7:56 PM EDT
Nautical Twilight 5:22 AM EDT 8:29 PM EDT
Astronomical Twilight 4:47 AM EDT 9:04 PM EDT
Moon 10:05 AM EDT (9/2) 9:46 PM EDT (9/2)
Length of Visible Light 13h 59m
Length of Day
13h 03m
Waxing Crescent, 15% of the Moon is Illuminated
Sep 2
Waxing Crescent
Sep 5
First Quarter
Sep 14
Full
Sep 21
Last Quarter
Sep 28
New

Hourly Weather History & Observations

Time (EDT) Temp. Heat Index Dew Point Humidity Pressure Visibility Wind Dir Wind Speed Gust Speed Precip Events Conditions
12:53 AM 72.0 °F - 63.0 °F 73% 30.23 in 10.0 mi SSE 6.9 mph - N/A   Partly Cloudy
1:53 AM 71.1 °F - 63.0 °F 75% 30.21 in 10.0 mi SSE 8.1 mph - N/A   Clear
2:53 AM 70.0 °F - 63.0 °F 78% 30.19 in 10.0 mi SSE 4.6 mph - N/A   Clear
3:53 AM 69.1 °F - 63.0 °F 81% 30.17 in 10.0 mi Calm Calm - N/A   Clear
4:53 AM 66.9 °F - 63.0 °F 87% 30.16 in 10.0 mi NW 3.5 mph - N/A   Scattered Clouds
5:53 AM 66.9 °F - 63.0 °F 87% 30.16 in 10.0 mi Calm Calm - N/A   Overcast
6:53 AM 70.0 °F - 63.0 °F 78% 30.13 in 10.0 mi Variable 4.6 mph - N/A   Overcast
7:53 AM 73.0 °F - 63.0 °F 71% 30.13 in 10.0 mi South 9.2 mph 17.3 mph N/A   Mostly Cloudy
8:53 AM 73.9 °F - 64.0 °F 71% 30.11 in 10.0 mi SSE 12.7 mph - N/A   Overcast
9:53 AM 73.9 °F - 66.0 °F 76% 30.10 in 7.0 mi South 6.9 mph - 0.00 in Rain Light Rain
10:07 AM 73.0 °F - 68.0 °F 84% 30.08 in 2.5 mi South 6.9 mph - 0.04 in Rain Rain
10:48 AM 73.4 °F - 69.8 °F 88% 30.06 in 8.0 mi South 6.9 mph - 0.09 in Rain Light Rain
10:53 AM 72.0 °F - 69.1 °F 91% 30.07 in 9.0 mi South 4.6 mph - 0.09 in Rain Light Rain
11:02 AM 73.0 °F - 69.1 °F 87% 30.05 in 10.0 mi Variable 3.5 mph - 0.00 in Rain Light Rain
11:53 AM 73.0 °F - 70.0 °F 90% 30.06 in 9.0 mi South 5.8 mph - 0.00 in Rain Light Rain
12:03 PM 73.0 °F - 70.0 °F 90% 30.04 in 10.0 mi South 6.9 mph - 0.00 in Rain Light Rain
12:36 PM 73.9 °F - 70.0 °F 87% 30.03 in 10.0 mi Variable 6.9 mph - 0.00 in   Overcast
12:53 PM 75.0 °F - 70.0 °F 84% 30.03 in 10.0 mi Variable 3.5 mph - 0.00 in   Overcast
1:20 PM 75.0 °F - 70.0 °F 84% 30.02 in 4.0 mi Variable 4.6 mph - 0.02 in Rain , Thunderstorm Light Rain
1:25 PM 75.0 °F - 70.0 °F 84% 30.02 in 1.8 mi Variable 3.5 mph - 0.04 in Rain , Thunderstorm Rain
1:35 PM 73.9 °F - 71.1 °F 91% 30.02 in 1.2 mi Calm Calm - 0.09 in Rain Rain
1:37 PM 73.9 °F - 71.1 °F 91% 30.01 in 0.8 mi Calm Calm - 0.12 in Rain Heavy Rain
1:43 PM 73.9 °F - 71.1 °F 91% 30.02 in 0.2 mi Calm Calm - 0.27 in Fog , Rain , Thunderstorm Heavy Thunderstorms and Rain
1:53 PM 72.0 °F - 71.1 °F 97% 30.02 in 0.2 mi NNW 8.1 mph - 0.65 in Fog , Rain , Thunderstorm Heavy Thunderstorms and Rain
2:02 PM 72.0 °F - 72.0 °F 100% 30.01 in 0.8 mi Calm Calm - 0.07 in Rain , Thunderstorm Rain
2:07 PM 72.0 °F - 72.0 °F 100% 30.00 in 2.0 mi Calm Calm - 0.08 in Rain , Thunderstorm Light Rain
2:26 PM 75.0 °F - 71.1 °F 87% 30.00 in 10.0 mi Variable 4.6 mph - 0.08 in   Mostly Cloudy
2:53 PM 77.0 °F - 71.1 °F 82% 29.99 in 10.0 mi Variable 4.6 mph - 0.08 in   Mostly Cloudy
3:10 PM 79.0 °F - 71.1 °F 77% 29.98 in 10.0 mi WNW 5.8 mph - N/A   Mostly Cloudy
3:38 PM 80.1 °F 83.2 °F 70.0 °F 71% 29.97 in 10.0 mi NW 8.1 mph - N/A   Mostly Cloudy
3:53 PM 80.1 °F 82.9 °F 69.1 °F 69% 29.98 in 10.0 mi Calm Calm - N/A   Partly Cloudy
4:53 PM 81.0 °F 83.8 °F 68.0 °F 65% 29.97 in 10.0 mi Variable 3.5 mph - N/A   Partly Cloudy
5:53 PM 81.0 °F 83.8 °F 68.0 °F 65% 29.96 in 10.0 mi WSW 3.5 mph - N/A   Scattered Clouds
6:53 PM 79.0 °F - 72.0 °F 79% 29.97 in 10.0 mi Calm Calm - N/A   Clear
7:53 PM 75.9 °F - 71.1 °F 85% 29.97 in 9.0 mi South 3.5 mph - N/A   Clear
8:53 PM 75.0 °F - 71.1 °F 87% 29.99 in 10.0 mi Variable 3.5 mph - N/A   Clear
9:53 PM 73.9 °F - 71.1 °F 91% 29.99 in 10.0 mi Calm Calm - N/A   Clear
10:53 PM 72.0 °F - 70.0 °F 93% 30.00 in 7.0 mi Calm Calm - N/A   Partly Cloudy
11:27 PM 73.0 °F - 71.1 °F 93% 30.00 in 9.0 mi Calm Calm - N/A Thunderstorm Overcast
11:42 PM 73.0 °F - 71.1 °F 93% 30.00 in 9.0 mi Calm Calm - N/A   Overcast
11:53 PM 73.0 °F - 71.1 °F 93% 30.01 in 9.0 mi Calm Calm - N/A   Overcast